This is the latest recevied weather packets stored in our database for station/object ALTO-WX. If no packets are shown the sender has not sent any weather packets the latest 10 day(s).
| Time | Temp. | Humidity | Pressure | Rain* | Wind** | Luminosity | Snow |
|---|---|---|---|---|---|---|---|
| 1788133538 | 76° F | 67% | 738.7 mmHg | 0 in | - | - | - |
| 1788132638 | 77° F | 65% | 738.7 mmHg | 0 in | - | - | - |
| 1788131734 | 78° F | 65% | 738.7 mmHg | 0 in | - | - | - |
| 1788130838 | 78° F | 65% | 738.7 mmHg | 0 in | - | - | - |
| 1788129937 | 79° F | 58% | 739 mmHg | 0 in | - | - | - |
| 1788129039 | 73° F | 61% | 739.2 mmHg | 0 in | - | - | - |
| 1788128138 | 76° F | 61% | 739.2 mmHg | 0 in | - | - | - |
| 1788127243 | 80° F | 61% | 739.2 mmHg | 0 in | - | - | - |
| 1788126337 | 81° F | 63% | 739 mmHg | 0 in | - | - | - |
| 1788125438 | 81° F | 63% | 739.2 mmHg | 0 in | - | - | - |
| 1788124537 | 82° F | 63% | 739.1 mmHg | 0.04 in | - | - | - |
| 1788123635 | 78° F | 63% | 739.1 mmHg | 0.04 in | - | - | - |
| 1788122736 | 79° F | 62% | 739.3 mmHg | 0 in | - | - | - |
| 1788121836 | 82° F | 62% | 738.9 mmHg | 0 in | - | - | - |
| 1788120937 | 82° F | 62% | 738.9 mmHg | 0 in | - | - | - |
| 1788120037 | 81° F | 66% | 739 mmHg | 0 in | - | - | - |
| 1788119136 | 81° F | 68% | 739 mmHg | 0 in | - | - | - |
| 1788118235 | 80° F | 68% | 739 mmHg | 0 in | - | - | - |
| 1788117336 | 80° F | 66% | 738.9 mmHg | 0 in | - | - | - |
| 1788116436 | 79° F | 66% | 738.9 mmHg | 0 in | - | - | - |
| 1788115536 | 78° F | 70% | 739.3 mmHg | 0 in | - | - | - |
| 1788114634 | 78° F | 70% | 739.3 mmHg | 0 in | - | - | - |
| 1788113736 | 77° F | 70% | 739.3 mmHg | 0 in | - | - | - |
| 1788112836 | 76° F | 70% | 739.3 mmHg | 0 in | - | - | - |
| 1788111934 | 76° F | 71% | 739.4 mmHg | 0 in | - | - | - |
* Rain latest hour (hover to see other rain measurements)
** Current wind speed in m/s (hover to see current wind gust speed)